Starlink 31487

operational
NORAD ID: 59297 Int'l Des: 2024-056 Owner: SPXS Country: US Constellation: starlink
LEOCIRCULAR

关于 Starlink 31487

正在加载描述...

实时位置

正在加载3D地球...

即将过境

高度历史

Altitude vs Time

uPlot chart will show altitude changes over time

两行轨道根数

1 59297U 24056B 25305.08626047 .00000281 00000-0 19764-4 0 9999
2 59297 43.0042 237.2145 0001507 253.2506 106.8180 15.27566269 91606
Epoch: Nov 1, 2025 • Age: 32 hours

当前状态

高度 482.5 km
速度 7.63 km/s
星下点 2.89°N, 148.71°W
发射日期 Mar 24, 2024
运行时间 1.6 years
类型 internet

技术详情

分类 Payload
质量 730.00 kg
干质量 700.00 kg
总质量 730.00 kg
长度 0.30 m
直径 4.10 m
跨度 29.00 m
形状 Box + pan
制造商 SPXS
平台类型 Starlink V2M
阶段状态 In Orbit
所有者/国家 SPXS/US

大型星座

Loading constellations...